Home   Weather   Leuven   Past weeks

Flag for Belgium Past Weather in Leuven, Belgium — Yesterday and Last 2 Weeks

Now
68 °F

Clear.


Feels Like: 68 °F
Forecast: 58 / 71 °F
Wind: 12 mph from Southwest

Location: Brussels National Airport

Current Time: Sep 28, 2016 at 10:38:13 PM

Latest Report: Sep 28, 2016 at 9:50 PM


Visibility: 10 mi

Pressure: 30.24 "Hg

Humidity: 56%

Dew Point: 52 °F

Location of LeuvenLocation

Past Weather in Leuven — Graph

°F

Leuven Temperature Yesterday

Maximum temperature yesterday: 72 °F (at 3:50 PM)
Minimum temperature yesterday: 45 °F (at 5:50 AM)
Average temperature yesterday: 58 °F

High & Low Weather Summary for the Past Weeks

 TemperatureHumidityPressure
High88 °F (Sep 14, 4:50 PM)100% (Sep 15, 3:20 AM)30.33 "Hg (Sep 15, 3:20 AM)
Low45 °F (Sep 27, 5:50 AM)33% (Sep 19, 1:50 PM)29.80 "Hg (Sep 15, 4:20 AM)
Average63 °F72%30.09 "Hg
* Reported Sep 13 9:20 PM — Sep 28 9:20 PM, Leuven, Weather by CustomWeather, © 2016

Note: Actual official high and low records may vary slightly from our data, if they occured in-between our weather recording intervals... More about our weather records

Advertising

Leuven Weather History for the Previous 24 Hours

Scroll right to see more
 ConditionsComfort  
Time TempWeatherWind HumidityBarometerVisibility
9:20 PM
Wed, Sep 28
68 °FClear.10 mph56%30.24 "Hg10 mi
8:50 PM68 °FClear.10 mph56%30.24 "Hg10 mi
8:20 PM70 °FClear.10 mph53%30.24 "Hg10 mi
7:50 PM70 °FClear.12 mph53%30.24 "Hg10 mi
7:20 PM70 °FSunny.13 mph53%30.27 "Hg10 mi
6:50 PM70 °FSunny.12 mph53%30.27 "Hg10 mi
6:20 PM70 °FSunny.14 mph50%30.27 "Hg10 mi
5:50 PM72 °FSunny.15 mph47%30.27 "Hg10 mi
5:20 PM72 °FPassing clouds.14 mph50%30.27 "HgN/A
4:50 PM72 °FPassing clouds.13 mph50%30.27 "HgN/A
4:20 PM72 °FPassing clouds.12 mph50%30.27 "HgN/A
3:50 PM73 °FSunny.15 mph47%30.27 "Hg10 mi
3:20 PM72 °FSunny.14 mph50%30.27 "Hg10 mi
2:50 PM72 °FPassing clouds.13 mph53%30.27 "HgN/A
2:20 PM72 °FPassing clouds.13 mph50%30.30 "HgN/A
1:50 PM72 °FPassing clouds.14 mph50%30.30 "HgN/A
1:20 PM68 °FPassing clouds.15 mph56%30.30 "HgN/A
12:50 PM70 °FPassing clouds.15 mph57%30.30 "HgN/A
12:20 PM68 °FPassing clouds.16 mph60%30.30 "HgN/A
11:50 AM66 °FPassing clouds.16 mph64%30.30 "HgN/A
11:20 AM66 °FPassing clouds.15 mph68%30.30 "HgN/A
10:50 AM64 °FScattered clouds.13 mph73%30.30 "HgN/A
10:20 AM63 °FPartly sunny.14 mph77%30.30 "HgN/A
9:50 AM63 °FPartly sunny.13 mph83%30.30 "HgN/A
9:20 AM63 °FPartly sunny.9 mph83%30.30 "HgN/A
8:50 AM61 °FPartly sunny.10 mph83%30.27 "HgN/A
8:20 AM61 °FPartly sunny.13 mph83%30.27 "HgN/A
7:50 AM61 °FPartly sunny.12 mph83%30.27 "HgN/A
7:20 AM61 °FPassing clouds.14 mph83%30.27 "HgN/A
6:50 AM61 °FPassing clouds.9 mph77%30.27 "HgN/A
6:20 AM59 °FPassing clouds.9 mph77%30.27 "HgN/A
5:50 AM59 °FPassing clouds.7 mph72%30.27 "HgN/A
5:20 AM61 °FPassing clouds.8 mph63%30.27 "HgN/A
4:50 AM61 °FPassing clouds.9 mph63%30.27 "HgN/A
4:20 AM63 °FPassing clouds.10 mph59%30.27 "HgN/A
3:50 AM63 °FPassing clouds.9 mph56%30.30 "HgN/A
3:20 AM63 °FPartly cloudy.8 mph56%30.30 "HgN/A
2:50 AM63 °FPassing clouds.9 mph52%30.30 "HgN/A
2:20 AM63 °FPassing clouds.9 mph52%30.30 "HgN/A
1:50 AM63 °FPassing clouds.10 mph49%30.30 "HgN/A
1:20 AM61 °FPassing clouds.10 mph55%30.30 "HgN/A
12:50 AM61 °FPassing clouds.10 mph55%30.30 "HgN/A
12:20 AM61 °FPassing clouds.10 mph52%30.30 "HgN/A
11:50 PM
Tue, Sep 27
61 °FClear.9 mph52%30.30 "Hg10 mi
11:20 PM61 °FClear.9 mph52%30.30 "Hg10 mi
10:50 PM61 °FClear.10 mph55%30.30 "Hg10 mi
10:20 PM61 °FClear.9 mph55%30.30 "Hg10 mi
Weather by CustomWeather, © 2016

See weather overviewHow to use our weather pages